Theta_e
340 342 342 339 337 335 336 335 335 336 333 326 320 319 318 316 315 313 311 310 307 303 302 302 303 304 303 303 304 305 305 303 304 305 304 304 303 302 302 303 303 302 302
338 340 341 340 339 336 333 333 334 329 325 321 319 318 316 316 314 313 311 308 305 302 301 302 303 302 302 302 302 303 303 303 302 303 303 303 302 301 302 302 303 302 302
339 340 340 338 336 330 330 328 330 326 321 319 318 316 316 315 314 313 310 305 302 301 301 301 301 301 301 301 302 302 302 302 301 301 302 302 301 302 302 303 303 303 303
341 341 338 333 329 326 326 323 321 321 319 318 316 315 314 314 313 311 307 304 301 300 300 300 299 299 299 299 301 301 301 301 300 300 301 301 301 301 302 302 303 303 303
342 338 331 325 324 324 321 319 319 319 317 316 315 314 314 313 311 307 304 301 300 299 299 298 297 296 296 298 299 300 299 299 299 299 299 299 301 300 301 301 302 303 303
334 327 323 321 319 317 316 316 318 317 316 316 314 314 312 308 307 304 302 299 299 297 296 295 295 296 297 297 298 297 297 298 298 298 297 297 298 299 299 301 302 303 303
323 320 318 315 312 311 312 313 315 313 315 314 314 313 309 305 304 300 299 298 296 295 295 295 294 295 296 296 297 298 298 298 296 296 296 296 296 297 298 301 302 302 302
318 315 312 310 308 308 310 312 312 312 313 313 312 310 305 300 300 299 298 297 295 295 294 294 294 294 294 295 296 297 298 297 298 297 297 297 297 299 300 301 302 302 302
314 310 309 309 308 311 311 310 312 312 311 312 310 304 300 297 298 297 297 296 295 295 294 293 293 293 294 295 296 296 296 298 300 300 300 301 301 300 300 300 301 301 300
311 309 310 311 308 305 305 311 310 310 308 307 300 298 297 297 296 296 296 295 294 293 292 292 292 292 294 294 294 293 293 294 296 299 300 302 300 299 299 300 300 300 299
307 305 305 304 304 306 303 303 304 306 303 300 298 298 297 296 296 295 294 292 291 290 289 290 291 293 293 293 293 292 292 295 297 296 296 298 299 297 298 300 300 299 299
302 301 300 299 298 298 303 299 300 299 297 295 295 295 295 294 294 292 290 290 289 288 289 290 292 292 292 293 293 294 296 296 295 293 293 294 294 294 298 299 300 299 299
301 298 297 297 297 297 295 295 294 294 293 293 294 293 292 292 291 290 289 288 288 290 290 291 291 292 292 292 293 294 295 294 291 291 292 293 293 295 298 299 300 300 299
299 298 297 294 293 292 293 293 293 293 293 292 292 291 291 290 290 289 288 288 290 290 290 290 290 291 291 291 292 293 293 291 290 289 291 292 295 295 298 298 298 300 300
298 295 293 292 291 291 291 292 293 293 294 293 292 291 291 289 288 287 287 288 289 289 289 289 289 289 289 290 291 292 292 293 292 291 290 292 293 294 297 298 298 298 299
294 292 291 291 291 291 291 291 293 293 292 292 291 290 288 288 286 286 288 288 288 288 288 287 286 286 286 287 288 289 290 291 290 290 290 291 292 294 296 297 297 298 299
292 291 291 291 291 291 291 291 290 290 290 289 288 287 286 285 286 286 287 287 288 288 287 285 285 286 286 287 288 287 288 290 290 290 290 291 293 295 296 296 296 297 298
291 291 291 291 291 291 291 290 290 289 288 288 287 285 285 285 285 286 286 287 286 286 286 286 286 286 287 287 288 289 290 290 291 291 291 292 293 295 296 295 296 296 297
291 291 291 291 291 290 290 289 289 288 287 287 285 284 284 284 284 285 285 285 284 284 285 286 287 287 287 288 289 289 289 290 291 291 291 292 294 295 295 296 296 297 298
291 291 290 290 290 290 289 289 288 287 287 286 284 283 284 284 284 283 284 283 283 283 284 286 287 287 288 288 289 289 290 292 293 292 292 293 295 295 296 296 296 297 298
291 290 290 290 290 289 289 288 288 287 286 285 284 284 284 284 283 283 282 282 282 283 284 286 287 287 288 288 289 289 290 292 293 293 294 295 295 295 296 296 296 297 298
291 290 290 290 290 289 289 288 288 287 286 286 286 286 286 285 282 282 282 282 282 283 283 285 287 287 287 287 288 289 290 293 294 295 295 294 295 295 295 295 296 295 295
291 291 290 290 290 289 289 288 288 287 287 287 286 286 286 285 283 282 282 282 283 283 283 284 285 287 287 287 288 288 289 292 295 295 295 294 294 294 294 294 294 294 294
291 291 290 290 289 289 289 289 288 288 288 288 287 286 286 285 284 283 282 283 283 283 283 283 285 286 287 287 288 288 289 290 294 297 297 296 294 294 294 294 293 294 294
291 291 290 290 289 289 289 289 289 289 288 288 287 286 286 285 285 283 283 283 283 283 282 283 284 286 287 287 287 288 289 290 290 292 295 295 296 294 293 293 293 294 295
291 291 291 290 290 290 290 290 289 289 289 288 287 287 286 286 285 284 283 283 283 282 282 282 283 286 286 287 287 287 288 289 289 290 290 292 293 294 293 293 293 293 293
Wind_Speed
38 35 34 36 31 38 31 32 34 34 34 32 30 28 25 24 21 20 20 16 15 14 14 12 13 13 12 13 14 12 11 10 8 21 23 27 29 33 33 31 29 28 27
36 35 34 35 32 35 34 35 37 36 33 34 30 28 26 25 20 18 18 15 15 15 15 14 15 14 16 17 16 16 15 15 9 17 22 24 25 31 30 28 30 27 26
35 36 34 35 35 34 39 37 39 39 35 32 29 28 26 23 20 17 16 15 16 16 15 14 16 17 19 18 18 19 18 17 17 13 19 21 23 26 29 28 29 27 25
34 36 35 37 39 40 41 40 40 41 37 33 30 29 25 22 20 18 15 15 13 13 12 15 16 17 18 19 18 17 17 19 20 17 17 21 20 29 26 27 30 28 28
34 34 36 38 42 43 43 42 42 40 36 35 33 28 24 22 19 17 15 14 13 12 13 14 14 15 15 15 15 15 15 17 17 16 17 19 20 26 26 28 26 28 29
36 36 40 42 42 43 44 46 45 42 36 34 32 29 24 22 19 16 14 14 15 14 15 14 16 17 18 15 12 9 9 11 13 13 13 16 21 23 27 27 24 24 9
40 40 41 42 42 41 44 42 43 40 40 35 32 28 25 22 18 16 14 14 15 15 15 16 18 19 18 17 12 11 10 11 10 11 16 18 20 28 28 29 27 26 21
41 42 43 44 45 45 47 46 42 36 36 32 30 28 28 22 15 14 14 14 13 13 14 16 18 20 18 17 17 15 15 15 17 19 19 22 24 27 29 27 26 25 22
40 42 45 51 50 50 50 45 42 36 34 31 30 29 27 22 15 14 13 11 10 11 13 15 17 16 15 16 18 17 18 21 19 21 19 20 25 29 29 29 29 24 19
40 42 47 54 50 46 43 49 40 36 34 33 32 28 24 22 16 14 10 7 9 10 12 12 13 14 15 16 19 20 21 22 24 27 28 27 30 33 31 32 29 22 22
45 43 42 40 50 54 48 43 42 41 37 33 29 25 24 21 18 12 6 9 12 11 13 12 13 14 13 17 19 23 21 22 26 26 26 30 32 33 32 32 27 25 22
51 48 44 47 42 42 52 42 41 42 39 34 33 32 27 21 15 12 12 13 10 11 10 13 15 12 17 20 23 22 23 27 28 25 25 28 29 30 30 29 27 24 28
53 49 46 44 44 42 42 42 38 35 33 28 32 32 26 19 15 14 13 9 9 13 15 17 14 19 23 24 25 26 29 30 25 25 23 24 27 28 24 28 27 24 25
53 47 49 40 40 33 36 34 34 31 30 29 32 29 23 18 16 12 13 12 16 17 19 21 24 27 26 27 30 31 32 30 25 21 19 21 27 28 25 27 24 24 23
49 44 38 37 37 38 35 33 35 30 34 35 31 26 23 19 15 12 13 17 19 20 24 28 32 30 33 33 33 32 31 31 30 27 22 24 25 25 24 26 26 22 21
43 38 35 35 37 39 42 40 35 34 32 29 26 25 23 20 16 16 20 21 22 26 31 30 25 28 27 28 28 28 30 31 25 23 22 24 24 23 23 25 24 21 20
45 39 39 38 37 38 36 36 37 38 33 29 26 25 22 21 20 22 22 23 25 30 34 25 26 27 26 26 26 24 26 26 23 23 24 25 25 23 22 22 23 21 20
43 41 39 36 37 36 34 36 34 31 28 30 25 23 21 24 23 22 22 25 32 31 27 26 27 26 27 25 25 28 28 26 27 27 26 26 28 22 21 22 22 20 19
42 38 38 36 35 37 39 34 32 32 30 31 28 26 24 25 26 26 27 33 28 24 24 28 27 27 25 25 27 28 27 26 27 28 28 28 28 23 23 23 23 23 22
40 41 41 39 39 37 35 34 31 29 29 29 28 26 25 27 28 29 30 28 25 24 27 26 25 24 26 27 27 27 28 30 30 30 30 30 28 25 24 23 23 22 23
39 39 42 39 36 34 32 32 31 31 29 28 27 26 27 30 27 27 25 24 26 27 25 23 22 25 26 26 26 27 29 30 31 31 32 31 28 27 27 25 26 27 27
38 38 37 34 34 34 34 34 32 30 29 32 29 26 26 28 25 24 24 25 25 24 23 21 21 23 24 25 25 26 29 30 31 31 32 31 29 28 27 26 26 25 24
40 39 37 34 36 38 35 34 32 31 33 30 28 27 24 24 23 23 24 23 23 23 22 22 20 18 20 23 25 27 29 30 27 28 32 31 29 27 23 22 22 22 21
41 39 37 35 35 36 36 35 33 32 30 27 25 23 22 22 23 23 22 21 21 21 20 21 20 18 20 23 25 27 27 27 26 22 27 30 31 29 26 24 23 23 23
40 38 35 36 37 37 37 34 31 29 26 24 22 21 20 20 22 21 20 19 19 18 18 18 19 20 20 23 25 25 25 26 27 27 26 26 26 29 28 25 23 25 26
39 40 40 39 38 37 34 31 28 26 25 23 21 19 19 19 19 18 17 17 16 15 15 16 19 21 22 23 24 24 25 27 27 28 30 31 31 28 27 28 26 24 23
Wind_Direction
176 171 164 162 158 160 156 164 169 165 160 154 155 146 137 129 118 117 114 109 94 76 61 49 46 37 22 21 17 9 6 344 300 309 315 328 331 339 339 337 340 337 336
173 172 164 161 162 157 158 163 163 154 154 153 149 138 130 122 123 126 118 104 84 66 53 42 38 29 22 17 11 12 5 348 318 309 321 328 331 342 331 335 339 338 340
168 164 158 160 154 150 155 155 154 151 148 143 138 130 124 126 130 128 114 95 75 60 48 39 32 18 14 6 3 2 354 346 338 311 317 328 332 337 336 340 339 337 345
164 160 155 147 146 144 147 143 144 146 143 138 136 125 128 126 127 121 109 83 70 60 49 40 30 21 8 357 356 352 346 341 343 336 330 331 335 341 343 341 337 346 343
156 154 141 136 137 139 137 138 139 138 138 137 128 125 123 122 123 117 97 85 70 62 50 38 27 14 7 4 353 344 339 344 343 336 335 336 340 346 346 337 335 341 347
139 131 131 130 129 130 133 136 138 136 135 131 126 127 126 121 115 100 89 81 71 60 48 36 33 26 21 19 9 346 349 349 342 333 329 344 337 341 340 337 340 347 349
127 126 126 124 120 121 125 125 131 135 139 132 129 131 125 113 106 100 84 79 73 58 45 37 36 30 22 14 9 12 15 17 9 347 350 352 337 343 340 342 344 342 337
126 124 123 121 117 119 123 126 129 129 126 126 128 129 120 114 115 101 89 80 74 60 47 40 34 28 19 12 17 18 20 20 18 18 17 9 7 5 357 348 344 337 344
127 125 125 123 121 126 128 127 126 130 126 128 132 129 122 119 108 91 80 84 72 60 42 35 34 27 15 19 24 19 19 21 25 27 31 28 29 21 7 2 359 354 353
124 124 125 127 128 123 124 128 132 132 126 131 128 123 118 107 93 86 85 92 77 55 43 37 35 27 22 26 28 23 19 12 16 20 24 30 31 25 13 16 7 8 359
115 113 115 120 123 127 125 128 131 129 131 129 124 116 106 100 99 92 84 74 61 54 46 42 47 39 37 41 40 37 28 24 26 24 24 27 27 19 10 20 28 25 14
112 109 109 111 111 117 126 128 129 131 126 123 118 107 103 100 97 96 81 68 64 63 61 60 57 54 52 46 42 38 37 34 30 25 25 20 8 3 7 24 34 42 38
110 107 104 111 115 123 125 127 124 123 119 115 109 106 104 106 100 85 78 74 78 83 79 71 67 59 54 48 43 41 39 33 27 25 14 12 10 8 9 31 45 51 44
106 106 113 113 113 114 117 119 123 121 116 115 112 114 113 103 90 88 90 90 95 87 81 74 66 60 55 47 42 40 35 28 24 22 12 16 24 14 14 24 22 26 29
105 109 112 116 114 113 113 119 121 120 128 125 124 121 111 105 94 99 103 93 90 85 75 63 55 49 44 40 39 38 31 30 27 23 14 19 13 9 13 25 31 25 33
110 113 117 115 113 110 109 106 112 116 116 111 110 115 108 105 118 110 98 92 85 74 67 57 49 45 38 30 26 25 24 27 22 19 18 20 10 6 11 18 28 27 29
118 119 116 115 113 114 112 112 106 102 102 106 107 104 109 114 108 102 97 88 79 72 65 56 50 44 37 31 26 24 19 21 21 27 20 20 14 13 17 17 20 28 27
112 113 114 116 113 113 113 107 109 113 109 104 103 108 109 103 100 100 93 84 68 63 61 57 51 44 38 31 28 26 24 21 30 31 26 23 21 15 18 19 21 22 24
111 112 114 114 113 112 112 115 115 114 111 112 113 106 105 103 95 88 79 73 68 63 61 58 53 47 40 36 34 32 27 26 32 34 30 24 23 19 21 24 27 34 40
113 116 115 114 113 114 116 116 117 116 116 115 116 117 111 101 86 77 73 72 69 62 60 60 55 49 43 39 34 30 29 32 36 38 36 30 27 29 30 31 32 29 33
115 114 117 114 114 119 121 118 121 119 120 119 114 109 103 95 88 82 78 72 66 61 59 60 57 50 44 39 36 33 32 33 40 45 46 39 34 32 36 37 40 45 50
117 116 116 116 121 121 123 127 126 125 120 114 111 104 97 91 90 86 79 72 67 63 58 58 57 50 43 40 38 37 36 37 42 50 50 42 38 39 39 43 47 47 45
121 120 120 122 126 129 129 130 128 126 120 116 112 106 101 96 90 85 79 73 68 64 59 56 57 58 49 45 43 41 41 40 43 48 52 48 39 40 39 39 40 43 43
125 126 125 127 131 131 131 130 127 122 120 119 116 112 105 98 89 82 78 72 68 63 60 57 56 61 57 51 49 46 45 45 45 48 51 52 49 44 44 44 42 46 51
131 132 133 133 135 132 133 129 126 126 128 128 126 118 110 97 86 81 77 74 69 65 62 60 59 60 62 55 53 51 49 48 48 48 50 52 52 51 47 46 47 48 53
137 139 139 139 136 135 132 134 137 139 138 135 130 122 107 98 90 85 80 76 71 69 67 65 63 62 63 60 55 53 51 50 49 49 50 52 53 53 51 50 50 52 53